Location: Newark
(48.2308°N, 120.8549°W)
Time: 14:07:44
(UTC+00:00)

Transit 2A Rocket - Pass Details

Date: 01 June 2020
Orbit: 584 x 919 km, 66.7° (Epoch: 07 July)

Event Time Altitude Azimuth Distance (km) Brightness Sun altitude
Rises 15:06:58 0° 321° (NW) 3,507 8.1 27.1°
Reaches altitude 10° 15:09:30 10° 317° (NW) 2,589 7.5 27.5°
Maximum altitude 15:15:22 51° 243° (WSW) 1,141 5.9 28.5°
Drops below altitude 10° 15:21:14 10° 170° (S) 2,594 7.9 29.5°
Sets 15:23:47 0° 165° (SSE) 3,514 8.6 29.9°
